Regional Weather Roundup
Issued by NWS

Home | Current Version | Previous Version | Text Only | Print | Product List | Glossary Off
Versions: 1 2 3 4 5 6 7 8 9 10 11 12 13 14 15 16 17 18 19 20 21 22 23 24 25 26 27 28 29 30 31 32 33 34 35 36 37 38 39 40 41 42 43 44 45 46 47 48 49 50

000
ASUS45 KCYS 261110
RWRWY

WYOMING REGIONAL WEATHER ROUNDUP
NATIONAL WEATHER SERVICE CHEYENNE WY
400 AM MST THU FEB 26 2015

NOTE:  "FAIR" INDICATES FEW OR NO CLOUDS BELOW 12,000 FEET
WITH NO SIGNIFICANT WEATHER AND/OR OBSTRUCTIONS TO VISIBILITY.

WYZ001-261200-
YELLOWSTONE NATIONAL PARK

CITY           SKY/WX    TMP DP  RH WIND       PRES   REMARKS
LK YELLOWSTONE   N/A     -7 -12  79 CALM      30.01F
W YELLOWSTONE  NOT AVBL

$$
WYZ002>013-054>058-071-098>099-261200-
NORTHERN WYOMING

CITY           SKY/WX    TMP DP  RH WIND       PRES   REMARKS
JACKSON        FAIR       9   3  78 NE6       30.02F WCI  -1
CODY           CLOUDY    10   9  92 N7        30.17F WCI   0
GREYBULL       CLOUDY    15   4  61 NW15      30.23S WCI   0
WORLAND        LGT SNOW  16  10  77 N9        30.21F WCI   4
SHERIDAN       CLOUDY     7   3  84 N5        30.30S WCI  -2
BUFFALO        LGT SNOW   6   3  87 N3        30.21S FOG
GILLETTE       LGT SNOW   4   0  83 E3        30.27R FOG
HULETT         LGT SNOW   5   1  85 MISG      30.28S
NEWCASTLE      FAIR       5  -2  72 NW9       30.27S WCI  -9

$$
WYZ014>020-022>026-101>103-261200-
CENTRAL WYOMING

CITY           SKY/WX    TMP DP  RH WIND       PRES   REMARKS
BIG PINEY      CLOUDY    17  13  84 SE10      30.02F WCI   5
PINEDALE       LGT SNOW  16  14  93 NE3       30.03F
DUBOIS         LGT SNOW  10   7  85 NW9       29.99F WCI  -2
LANDER         CLOUDY    17  13  84 CALM      30.08F
RIVERTON       CLOUDY    13   9  84 NE7       30.11F WCI   3
CASPER         CLOUDY    10   4  76 E7        30.16S WCI  -1
DOUGLAS        CLOUDY    10   3  73 N7        30.20F WCI  -1

$$
WYZ021-027>030-104>119-261200-
SOUTHERN WYOMING

CITY           SKY/WX    TMP DP  RH WIND       PRES   REMARKS
EVANSTON       FAIR      21  15  78 E7        29.96F WCI  12
FORT BRIDGER   FAIR      18  17  99 NW3       30.01F
ROCK SPRINGS   CLOUDY    12   7  80 SE8       30.02F WCI   0
DIXON          FAIR      14   9  79 E8        30.05F WCI   3
RAWLINS        LGT SNOW  14  11  87 S3        30.03F FOG
SARATOGA       LGT SNOW  12   9  85 CALM      30.04F
LARAMIE        CLOUDY     7   3  84 N6        30.00F WCI  -3
CHEYENNE       CLOUDY     8   3  80 N6        30.10R WCI  -2
TORRINGTON     CLOUDY    12   2  64 N12       30.24S WCI  -2
PINE BLUFFS    PTSUNNY   10   5  79 N12       30.17S WCI  -4

$$



USA.gov is the U.S. government's official web portal to all federal, state and local government web resources and services.